Temperature
9 9 9 8 8 8 7 7 8 10 11 12 11 12 12 12 11 10 9 7 6 5 4 4 3 3 3 3 4 4 4 4 4 4 4 4 4 4 4 4 4 4 4 4
8 9 9 8 8 8 8 8 9 9 10 12 13 12 12 11 11 10 9 7 6 5 4 3 3 3 3 3 3 3 3 3 3 3 3 3 3 2 2 2 2 2 2 2
8 9 8 7 8 8 8 9 9 8 9 12 11 12 11 11 10 10 8 7 5 4 3 3 3 2 2 2 2 2 2 2 2 2 2 2 2 2 2 1 1 1 1 1
8 7 6 9 11 10 9 9 10 10 11 11 11 11 11 10 9 9 8 6 5 4 3 3 2 2 2 2 2 2 2 2 2 2 2 1 1 1 1 1 1 1 0 0
7 7 8 10 10 10 9 9 10 10 11 11 11 10 9 9 9 8 7 6 5 4 3 3 2 2 1 1 1 1 1 1 1 1 1 1 1 1 0 0 0 0 -0 -0
7 7 7 10 10 11 10 9 11 10 10 11 10 8 8 8 8 7 6 5 5 4 3 3 2 2 1 1 1 1 1 1 1 1 1 1 1 0 0 -0 -0 -0 -1 -1
7 7 8 10 10 10 8 9 10 10 10 10 9 8 8 8 7 6 6 5 5 4 3 3 3 2 2 1 1 1 1 1 1 1 1 1 0 0 -0 -0 -1 -1 -1 -2
7 6 7 9 9 9 9 9 10 9 9 9 9 8 8 7 7 6 5 5 5 4 4 3 3 2 2 1 1 1 1 1 1 1 1 0 0 -0 -0 -1 -1 -2 -2 -2
8 8 9 10 10 10 10 9 9 9 9 8 8 8 7 7 6 6 5 5 5 4 4 3 3 2 2 2 1 1 1 1 1 0 0 0 0 -0 -1 -1 -2 -2 -2 -3
9 9 10 10 10 9 9 9 9 8 8 8 8 7 7 6 6 6 5 5 4 4 3 3 3 2 2 2 1 1 1 1 0 0 0 0 -0 -0 -1 -1 -2 -2 -2 -3
8 9 10 10 10 9 9 8 8 8 8 8 7 7 7 6 6 6 5 5 4 4 4 3 3 2 2 2 1 1 1 1 0 0 0 0 -0 -1 -1 -1 -2 -2 -3 -3
8 9 9 9 9 8 8 8 7 7 7 7 7 7 7 6 6 6 5 5 5 4 4 3 3 3 2 2 1 1 1 1 0 0 -0 -0 -0 -1 -1 -2 -2 -3 -3 -4
9 9 9 8 8 7 7 7 7 7 7 7 6 6 6 6 6 5 5 5 5 4 4 3 3 3 2 2 1 1 1 1 0 0 -0 -0 -1 -1 -1 -2 -2 -3 -3 -4
8 8 7 7 6 6 6 6 6 6 6 6 6 6 6 5 5 5 5 5 4 4 4 3 3 3 2 2 1 1 1 0 0 -0 -0 -1 -1 -1 -2 -2 -3 -3 -4 -4
6 6 6 6 6 5 5 5 5 5 5 5 5 5 5 5 5 5 4 4 4 3 3 3 3 3 2 2 1 1 1 0 0 -0 -0 -1 -1 -2 -2 -2 -3 -3 -4 -5
5 5 5 5 4 4 4 4 4 4 4 4 4 4 4 4 4 4 4 3 3 4 3 3 3 3 2 2 1 1 0 0 -0 -0 -1 -1 -1 -2 -2 -3 -3 -4 -4 -5
4 4 4 3 3 3 3 3 3 3 3 3 3 3 3 3 3 3 3 3 3 3 3 3 3 2 2 1 1 1 0 -0 -0 -1 -1 -1 -2 -2 -2 -3 -3 -4 -5 -5
4 3 3 3 3 2 2 2 2 2 2 2 2 3 3 3 3 3 3 3 2 2 2 2 2 2 1 1 1 0 -0 -0 -1 -1 -1 -2 -2 -2 -3 -3 -4 -4 -5 -5
2 2 2 2 2 2 2 2 2 2 2 2 2 2 2 2 2 2 2 2 2 2 2 2 1 1 1 0 0 -0 -0 -1 -1 -1 -1 -2 -2 -2 -3 -3 -4 -4 -5 -5
1 1 1 2 1 1 1 1 1 1 1 1 1 1 2 2 2 2 2 2 2 2 1 1 1 0 0 -0 -1 -1 -1 -1 -1 -1 -2 -2 -2 -3 -3 -3 -4 -4 -5 -5
1 1 1 1 1 1 1 1 1 1 1 1 1 1 1 1 1 1 1 1 1 1 0 0 -0 -0 -0 -1 -1 -1 -2 -2 -2 -2 -2 -2 -3 -3 -3 -4 -4 -4 -5 -5
0 0 0 0 0 0 0 0 0 0 -0 -0 -0 -0 0 0 0 0 -0 -0 -0 -0 -0 -0 -1 -1 -1 -1 -2 -2 -2 -2 -2 -2 -2 -3 -3 -3 -3 -4 -4 -4 -5 -5
0 0 0 0 0 -0 -0 -1 -1 -1 -1 -1 -1 -1 -1 -1 -1 -1 -1 -1 -1 -1 -1 -1 -1 -2 -2 -2 -2 -2 -2 -3 -3 -3 -3 -3 -3 -3 -4 -4 -4 -5 -5 -5
0 0 -0 -0 -0 -1 -1 -1 -1 -1 -1 -1 -1 -1 -2 -2 -1 -2 -2 -1 -1 -1 -1 -2 -2 -2 -2 -2 -2 -3 -3 -3 -3 -3 -4 -4 -4 -4 -4 -4 -4 -5 -5 -5
-0 -0 -0 -1 -1 -1 -1 -1 -2 -2 -2 -2 -2 -2 -2 -2 -2 -2 -2 -2 -2 -2 -2 -2 -2 -3 -3 -3 -3 -3 -3 -3 -4 -4 -4 -4 -4 -4 -4 -5 -5 -5 -5 -6
-0 -0 -1 -1 -1 -1 -2 -2 -2 -2 -2 -2 -2 -2 -2 -2 -2 -2 -2 -2 -2 -2 -2 -2 -3 -3 -3 -3 -3 -3 -4 -4 -4 -4 -4 -4 -5 -5 -5 -5 -5 -5 -6 -6
-1 -1 -1 -1 -1 -2 -2 -2 -2 -2 -2 -2 -2 -2 -2 -2 -3 -3 -3 -3 -3 -3 -3 -3 -3 -3 -4 -4 -4 -4 -4 -4 -4 -5 -5 -5 -5 -5 -5 -5 -5 -6 -6 -6
Wind_Speed
0 2 4 5 8 10 10 8 6 3 2 7 8 7 6 5 6 6 7 7 6 4 3 4 4 4 5 5 5 6 6 7 7 7 7 8 8 9 9 10 11 11 11 11
2 4 4 5 8 11 12 13 11 8 6 4 2 5 4 4 4 5 6 7 6 5 4 4 4 4 5 5 5 6 6 6 6 7 7 8 8 8 9 10 11 11 12 12
3 4 2 8 13 15 11 9 11 13 9 5 4 5 4 3 4 5 6 7 7 6 5 5 5 4 5 5 5 6 6 6 6 7 7 7 8 9 10 10 10 11 11 11
1 2 6 5 2 8 12 12 11 8 7 5 4 2 2 2 3 5 8 7 7 6 6 5 5 5 5 5 5 5 5 6 6 6 7 7 7 8 8 8 8 8 9 9
3 4 7 5 5 4 6 7 12 12 8 4 1 1 1 3 5 6 7 7 7 6 6 6 5 5 5 5 5 5 5 5 5 5 6 6 7 7 6 6 7 6 6 6
3 3 4 2 6 4 3 4 5 9 7 6 5 3 3 6 7 7 8 7 7 6 6 6 5 6 6 5 5 5 5 5 5 5 5 5 5 5 4 4 5 4 4 4
5 5 6 3 6 5 3 1 5 6 5 4 3 3 6 7 6 7 7 7 7 7 6 5 6 6 6 6 5 4 5 5 5 5 5 4 4 3 3 3 3 3 4 4
5 6 6 6 6 3 2 4 6 6 5 4 5 6 6 7 7 7 7 7 7 6 6 5 6 7 7 6 5 5 5 5 4 4 4 4 4 2 2 2 3 3 3 3
6 5 2 5 3 4 4 4 4 4 4 4 3 4 6 6 7 7 8 7 7 7 7 6 6 7 8 7 6 6 5 5 5 4 3 3 3 1 1 2 2 2 2 2
3 4 5 6 4 4 3 3 4 3 3 3 3 4 6 7 7 8 8 8 8 8 8 7 7 7 8 8 7 6 6 6 5 4 3 3 3 2 2 3 3 3 3 2
5 5 3 5 6 5 5 5 4 3 2 2 2 3 5 6 7 8 8 8 8 8 8 9 8 7 8 8 7 7 7 5 5 4 4 4 3 3 3 3 3 2 2 2
4 3 3 3 5 6 6 4 3 2 0 1 3 4 4 5 7 8 8 8 8 9 8 9 9 8 8 8 7 7 6 6 4 4 3 3 4 2 3 3 3 3 2 1
0 4 5 7 6 6 4 4 2 1 2 2 3 3 4 4 6 7 8 10 10 10 9 9 9 9 9 8 8 8 7 6 5 4 4 3 3 3 2 2 3 2 2 2
3 3 3 3 4 5 4 2 1 2 3 3 2 2 3 4 5 7 9 9 9 9 9 9 10 10 9 9 8 7 7 7 6 5 4 4 3 2 1 1 2 3 4 5
3 3 3 4 5 4 3 1 2 3 3 2 2 3 4 5 6 7 7 7 8 9 9 10 10 9 9 9 9 8 7 5 5 4 4 4 3 2 1 2 2 2 2 3
5 4 4 3 2 1 0 1 3 4 3 3 3 4 5 5 5 5 6 8 9 11 10 10 10 10 10 10 9 7 6 9 7 5 4 4 3 3 3 3 3 3 3 3
5 4 3 2 1 0 1 2 3 4 5 5 5 4 4 4 4 5 6 7 8 8 9 10 9 9 10 10 9 7 6 7 9 6 5 4 4 4 3 3 3 3 4 4
5 4 3 2 1 2 3 3 4 5 6 6 5 4 4 5 6 6 6 6 6 6 7 8 9 10 10 10 8 7 7 6 6 5 5 4 4 4 4 4 4 4 4 4
6 5 4 4 3 3 3 4 5 5 6 5 5 5 5 5 4 4 5 7 8 8 7 8 13 11 10 11 10 7 7 7 6 5 5 6 5 4 4 4 4 4 4 4
5 4 4 3 3 3 3 4 5 5 5 5 4 4 3 3 3 3 5 6 7 5 6 9 10 9 10 11 12 7 8 8 7 6 5 5 5 5 5 5 5 5 5 5
4 4 4 3 3 3 4 5 5 6 6 5 4 4 3 2 2 2 3 4 4 5 7 11 9 8 9 10 12 7 7 7 7 6 6 6 5 5 5 5 5 5 5 5
3 3 3 4 4 4 4 4 5 6 6 5 5 4 3 2 1 2 3 3 3 6 6 6 6 9 12 12 8 8 8 7 7 6 6 6 6 5 5 5 5 5 5 5
2 2 3 3 4 4 4 4 5 5 5 5 5 4 3 3 2 2 3 2 2 7 6 5 8 13 15 10 7 8 8 7 7 6 6 6 6 5 5 6 5 5 5 5
1 2 2 3 4 3 4 5 5 4 5 5 4 4 3 3 2 2 2 3 4 6 4 7 11 14 14 7 7 7 7 7 6 6 6 5 5 5 5 5 5 5 5 6
1 0 1 2 2 2 3 5 5 4 4 4 4 4 3 2 2 3 3 3 5 5 3 7 10 12 9 6 7 7 6 6 6 6 6 5 5 5 5 5 5 5 5 6
1 1 1 1 1 2 2 3 3 4 4 4 4 3 3 3 3 3 3 3 4 4 3 3 4 7 5 6 6 6 6 6 6 6 6 6 6 6 5 5 6 5 5 6
3 3 2 2 2 1 2 2 3 3 3 4 4 4 4 4 3 3 3 3 3 2 2 3 3 4 4 5 5 6 5 5 5 5 6 6 5 5 6 6 5 5 5 5
Wind_Direction
343 55 137 189 203 200 199 206 209 247 210 181 178 174 165 161 155 151 153 149 143 136 111 99 87 75 67 59 47 48 54 51 48 46 43 43 43 43 45 46 49 49 50 48
230 208 210 233 226 215 215 222 236 259 275 280 172 141 155 171 172 177 165 148 141 137 125 111 93 81 78 69 58 59 62 59 57 56 52 51 52 52 54 54 53 54 55 55
227 172 239 251 225 214 210 205 211 228 232 224 191 179 184 192 188 177 149 140 141 141 130 113 98 84 83 77 74 72 70 67 64 64 61 57 59 59 58 57 59 60 58 58
226 134 241 238 142 194 213 219 212 220 213 202 189 162 140 148 176 151 137 137 137 133 125 116 110 104 98 89 84 83 78 75 74 74 72 66 64 63 61 61 63 64 63 62
214 241 266 222 172 172 192 228 212 217 225 223 170 357 206 110 94 116 126 128 129 127 126 124 122 120 113 103 94 87 80 74 74 80 80 75 70 67 67 71 68 67 70 69
219 244 259 86 127 146 173 247 184 183 190 189 168 215 192 132 112 108 111 114 119 123 125 127 126 122 119 115 106 98 91 85 80 82 87 84 84 84 82 84 82 76 68 71
231 240 268 133 134 142 189 163 91 104 117 130 154 148 141 135 130 129 127 127 129 133 133 134 131 129 128 123 121 115 110 105 100 97 98 97 89 88 99 98 91 82 76 69
203 225 244 139 145 190 129 100 91 88 88 98 104 118 136 145 145 143 141 143 146 143 140 138 141 142 139 141 140 134 128 122 117 114 107 103 94 76 81 91 89 82 83 67
199 211 157 156 151 102 99 104 102 101 100 114 137 162 163 164 162 163 162 163 160 157 155 157 160 158 155 160 159 154 147 139 131 123 117 117 110 76 45 57 69 59 71 70
253 236 184 177 174 149 129 117 107 105 116 144 185 185 175 174 174 175 174 171 169 167 169 171 173 169 159 160 167 162 151 146 145 138 130 110 91 62 51 43 43 47 52 37
243 255 228 197 185 167 141 125 118 111 131 179 213 214 192 186 183 181 179 174 175 179 181 178 171 165 156 160 166 161 155 155 153 146 137 116 90 67 75 76 76 70 56 33
226 234 188 155 125 108 119 119 109 109 162 223 221 229 210 198 187 181 180 176 179 185 185 176 169 166 163 167 170 162 161 164 163 159 154 150 143 118 90 127 102 77 58 359
150 49 75 101 93 84 96 91 65 349 277 269 252 234 218 207 189 182 182 184 188 188 183 174 172 172 170 171 173 168 168 169 166 166 169 170 163 165 192 215 212 223 245 289
99 104 129 130 118 96 80 59 10 306 281 259 248 244 225 214 197 192 193 191 185 180 179 176 176 178 173 170 169 169 166 169 167 170 167 165 169 173 183 215 263 266 243 253
118 89 97 93 94 90 74 22 312 288 280 270 245 237 230 223 217 210 196 179 174 178 181 179 181 180 169 167 169 169 164 165 168 161 157 158 160 168 206 238 253 267 273 273
126 106 99 103 106 98 11 303 293 297 302 291 271 251 236 231 225 209 187 176 182 191 189 185 187 178 167 167 169 169 170 171 166 162 163 167 175 194 219 235 248 258 266 266
138 154 157 170 201 274 320 326 312 307 303 291 280 271 245 227 222 210 196 190 193 194 189 188 185 170 168 171 171 171 165 172 173 167 174 180 187 202 216 227 242 251 255 270
82 92 96 84 53 358 341 333 319 307 298 295 286 270 244 225 224 217 199 182 183 192 193 185 173 167 171 174 173 167 165 168 173 177 179 184 194 202 212 226 241 255 260 274
77 71 61 50 31 360 335 326 320 312 308 305 292 273 254 239 228 211 182 181 196 208 204 185 176 172 176 179 172 166 165 168 174 179 180 199 206 206 214 226 237 247 255 260
81 70 57 43 28 4 343 336 329 322 320 315 304 289 274 255 227 204 194 206 213 209 182 179 178 179 179 180 174 170 171 174 179 181 184 192 202 212 217 226 233 242 250 256
77 64 50 33 17 8 3 351 343 335 333 334 331 320 305 283 230 203 207 230 220 180 177 184 183 182 180 181 179 174 177 180 184 185 190 198 206 213 219 226 236 246 251 256
73 56 37 20 9 4 3 359 350 342 343 346 345 342 336 323 288 248 234 232 208 190 186 188 186 189 188 183 179 178 182 185 187 187 192 198 205 213 220 226 233 242 248 251
79 51 27 13 358 342 349 3 356 348 344 340 337 333 324 308 284 262 274 255 207 208 200 197 198 197 194 186 180 182 184 187 191 192 195 199 204 210 219 228 233 239 245 252
78 44 16 353 341 345 352 348 339 333 332 332 336 336 330 320 306 277 276 274 246 231 214 209 208 205 199 187 181 184 188 190 192 192 193 196 203 211 219 227 235 240 245 254
119 311 326 338 341 341 336 331 331 335 338 335 336 340 340 329 304 303 293 275 265 251 225 219 216 211 198 181 185 189 189 191 193 191 193 197 206 214 221 227 233 241 248 253
217 245 258 267 279 308 319 322 323 326 331 331 331 331 331 324 315 313 304 289 278 259 228 208 209 211 193 184 186 189 189 197 209 205 199 202 210 215 223 229 238 241 249 256
227 240 253 266 254 251 285 299 305 314 323 323 320 320 323 321 318 317 311 302 293 265 222 202 201 198 190 186 186 185 185 188 192 194 198 204 210 218 224 230 236 244 250 258
Height
1471 1469 1472 1475 1475 1476 1482 1481 1483 1473 1470 1469 1470 1471 1473 1475 1477 1478 1479 1480 1480 1481 1481 1480 1480 1479 1478 1477 1477 1476 1475 1474 1473 1472 1470 1469 1467 1465 1463 1462 1460 1459 1457 1456
1473 1470 1471 1473 1471 1472 1474 1475 1475 1473 1471 1466 1466 1468 1471 1473 1474 1475 1476 1477 1477 1478 1478 1478 1477 1477 1476 1476 1475 1475 1474 1473 1473 1471 1470 1469 1467 1466 1464 1463 1461 1460 1459 1458
1472 1468 1471 1474 1464 1464 1465 1464 1468 1471 1468 1465 1466 1467 1469 1470 1471 1472 1473 1473 1474 1475 1475 1475 1475 1475 1475 1475 1475 1474 1474 1473 1473 1472 1471 1469 1468 1467 1466 1465 1464 1462 1461 1460
1470 1473 1480 1459 1450 1451 1456 1458 1460 1459 1459 1461 1463 1465 1466 1467 1468 1469 1469 1470 1471 1472 1472 1473 1473 1473 1474 1474 1474 1474 1474 1473 1473 1472 1471 1471 1470 1469 1467 1467 1466 1465 1464 1463
1470 1469 1462 1451 1450 1450 1453 1454 1452 1455 1457 1459 1461 1463 1464 1464 1465 1466 1467 1468 1469 1469 1470 1471 1471 1472 1473 1473 1473 1474 1474 1473 1473 1473 1472 1472 1471 1470 1470 1469 1468 1467 1466 1465
1467 1469 1464 1450 1448 1448 1452 1453 1446 1449 1453 1456 1459 1464 1463 1462 1463 1464 1465 1465 1466 1467 1468 1469 1470 1471 1472 1472 1473 1473 1474 1474 1474 1474 1474 1473 1473 1472 1471 1471 1470 1469 1467 1466
1466 1466 1457 1448 1447 1450 1457 1452 1448 1449 1452 1455 1457 1459 1461 1461 1461 1462 1463 1463 1464 1465 1467 1468 1469 1470 1471 1472 1473 1473 1474 1474 1474 1475 1474 1474 1474 1473 1472 1472 1470 1469 1468 1467
1461 1464 1460 1447 1448 1451 1451 1449 1450 1451 1453 1455 1456 1457 1458 1459 1459 1460 1461 1462 1463 1464 1465 1466 1468 1469 1470 1471 1473 1473 1474 1475 1475 1475 1475 1475 1475 1474 1473 1472 1471 1470 1468 1467
1452 1453 1447 1446 1447 1448 1448 1450 1451 1452 1453 1454 1455 1456 1457 1457 1457 1458 1459 1460 1461 1462 1464 1465 1467 1468 1469 1471 1472 1473 1474 1474 1475 1475 1475 1475 1475 1474 1473 1472 1471 1470 1468 1467
1445 1443 1443 1444 1446 1447 1448 1449 1450 1451 1451 1452 1453 1454 1454 1455 1455 1456 1457 1458 1459 1460 1462 1464 1465 1467 1469 1470 1471 1472 1473 1474 1475 1475 1475 1475 1474 1474 1473 1472 1470 1469 1468 1466
1443 1442 1441 1442 1443 1445 1446 1447 1448 1449 1450 1450 1451 1452 1452 1452 1452 1453 1454 1455 1457 1458 1460 1462 1463 1465 1467 1469 1470 1471 1472 1473 1474 1474 1474 1474 1473 1473 1472 1471 1470 1468 1467 1465
1442 1438 1439 1440 1441 1442 1444 1445 1446 1447 1448 1448 1449 1449 1449 1449 1450 1450 1451 1452 1454 1455 1457 1459 1461 1463 1465 1467 1468 1469 1470 1471 1472 1472 1472 1472 1472 1471 1470 1470 1468 1467 1465 1463
1437 1437 1437 1439 1440 1441 1443 1444 1444 1445 1445 1445 1446 1446 1446 1446 1446 1447 1447 1449 1450 1452 1454 1456 1458 1460 1462 1464 1466 1467 1468 1469 1470 1470 1470 1470 1470 1469 1468 1468 1466 1464 1463 1461
1434 1436 1437 1438 1439 1440 1441 1441 1442 1442 1442 1442 1442 1442 1442 1442 1442 1443 1444 1445 1447 1448 1450 1452 1454 1456 1459 1461 1463 1464 1465 1466 1467 1467 1468 1468 1467 1467 1466 1464 1463 1461 1460 1458
1433 1434 1435 1436 1437 1438 1438 1438 1438 1438 1438 1438 1438 1438 1438 1438 1438 1439 1440 1441 1442 1444 1446 1448 1450 1452 1455 1457 1459 1461 1462 1463 1464 1465 1465 1465 1465 1464 1463 1462 1460 1458 1456 1454
1431 1432 1433 1434 1434 1435 1435 1435 1435 1435 1435 1435 1434 1434 1434 1434 1434 1435 1435 1436 1438 1439 1441 1443 1445 1448 1451 1453 1455 1457 1458 1460 1461 1461 1462 1462 1461 1461 1460 1458 1457 1455 1453 1451
1428 1429 1430 1431 1432 1432 1432 1432 1432 1432 1431 1431 1430 1430 1430 1430 1430 1430 1431 1432 1433 1435 1437 1439 1441 1444 1446 1448 1450 1452 1454 1456 1457 1457 1458 1458 1458 1457 1456 1455 1453 1451 1450 1448
1426 1428 1428 1429 1429 1430 1430 1429 1429 1428 1427 1427 1426 1426 1425 1425 1425 1426 1427 1427 1428 1430 1431 1433 1436 1438 1441 1443 1446 1448 1450 1451 1453 1453 1454 1454 1454 1453 1452 1451 1449 1448 1446 1444
1424 1426 1426 1427 1427 1427 1427 1426 1426 1425 1424 1423 1422 1422 1421 1421 1421 1422 1422 1423 1423 1424 1426 1428 1430 1433 1435 1438 1440 1443 1445 1447 1448 1449 1450 1450 1450 1449 1448 1447 1446 1444 1442 1440
1424 1424 1425 1425 1425 1425 1425 1424 1423 1422 1421 1420 1419 1418 1417 1418 1418 1418 1418 1418 1419 1420 1422 1423 1425 1427 1429 1432 1435 1437 1439 1441 1443 1444 1445 1445 1445 1445 1444 1443 1441 1440 1438 1435
1423 1424 1424 1424 1424 1423 1422 1421 1420 1419 1418 1417 1416 1415 1414 1414 1414 1414 1413 1414 1415 1415 1416 1417 1419 1421 1423 1426 1429 1431 1434 1436 1438 1439 1440 1441 1441 1441 1440 1439 1437 1435 1433 1431
1423 1423 1424 1423 1423 1422 1421 1420 1418 1417 1416 1414 1413 1412 1411 1411 1411 1410 1410 1410 1410 1411 1411 1412 1414 1416 1418 1420 1423 1426 1429 1431 1433 1434 1435 1436 1436 1436 1435 1434 1433 1431 1429 1427
1423 1423 1423 1422 1421 1420 1419 1418 1417 1415 1414 1412 1411 1410 1409 1408 1408 1407 1407 1407 1406 1406 1407 1407 1409 1411 1413 1415 1418 1421 1423 1425 1428 1429 1431 1431 1432 1431 1431 1430 1428 1427 1425 1423
1423 1422 1422 1421 1420 1419 1418 1417 1415 1414 1412 1411 1410 1408 1407 1406 1405 1405 1404 1403 1403 1403 1403 1403 1405 1407 1409 1411 1413 1416 1418 1421 1423 1424 1426 1427 1427 1427 1426 1425 1424 1422 1420 1418
1422 1422 1421 1420 1419 1418 1417 1415 1414 1413 1411 1410 1408 1407 1406 1404 1403 1402 1401 1400 1400 1400 1400 1400 1401 1403 1404 1406 1409 1411 1414 1416 1418 1419 1421 1421 1422 1422 1421 1420 1419 1417 1415 1413
1421 1420 1419 1418 1417 1416 1415 1414 1413 1411 1410 1408 1407 1406 1404 1403 1401 1400 1399 1398 1397 1397 1397 1398 1398 1400 1401 1403 1405 1407 1409 1411 1413 1414 1415 1416 1417 1417 1416 1415 1414 1412 1411 1409
1418 1418 1417 1416 1415 1414 1413 1412 1411 1410 1408 1406 1405 1404 1402 1401 1399 1398 1397 1396 1395 1395 1395 1395 1396 1397 1398 1399 1401 1403 1405 1406 1408 1409 1410 1411 1412 1412 1411 1410 1409 1408 1406 1404